| time (UTC) | temp C | wind direction | speed KPH | gust KPH | rain 1hr cm | rain 24hr cm | rain mn cm | humidity % | barometer mb |
| 20260904124550 | 16 | 207 | 0.0 | 1.6 | 0.00 | 0.00 | 0.00 | 94 | 1011.2 |
| 20260904123049 | 15 | 207 | 0.0 | 1.6 | 0.00 | 0.00 | 0.00 | 94 | 1011.4 |
| 20260904121549 | 15 | 207 | 0.0 | 0.0 | 0.00 | 0.00 | 0.00 | 93 | 1011.4 |
| 20260904120050 | 14 | 207 | 0.0 | 0.0 | 0.00 | 0.00 | 0.00 | 93 | 1011.4 |
| 20260904114547 | 14 | 207 | 0.0 | 0.0 | 0.00 | 0.00 | 0.00 | 93 | 1011.4 |
| 20260904113044 | 13 | 207 | 0.0 | 0.0 | 0.00 | 0.00 | 0.00 | 93 | 1011.2 |
| 20260904111543 | 13 | 207 | 0.0 | 0.0 | 0.00 | 0.00 | 0.00 | 92 | 1011.0 |
| 20260904110041 | 13 | 207 | 0.0 | 0.0 | 0.00 | 0.00 | 0.00 | 92 | 1010.8 |
| 20260904104541 | 13 | 207 | 0.0 | 0.0 | 0.00 | 0.00 | 0.00 | 92 | 1010.7 |
| 20260904103039 | 14 | 207 | 0.0 | 0.0 | 0.00 | 0.00 | 0.00 | 92 | 1010.6 |
| 20260904101538 | 14 | 207 | 0.0 | 0.0 | 0.00 | 0.00 | 0.00 | 92 | 1010.6 |
| 20260904100039 | 14 | 207 | 0.0 | 0.0 | 0.00 | 0.00 | 0.00 | 92 | 1010.4 |
| 20260904094543 | 14 | 207 | 0.0 | 0.0 | 0.00 | 0.00 | 0.00 | 92 | 1010.4 |
| 20260904093036 | 14 | 207 | 0.0 | 0.0 | 0.00 | 0.00 | 0.00 | 92 | 1010.2 |
| 20260904091535 | 15 | 207 | 0.0 | 0.0 | 0.00 | 0.00 | 0.00 | 92 | 1010.1 |
| 20260904090036 | 15 | 207 | 0.0 | 0.0 | 0.00 | 0.00 | 0.00 | 92 | 1009.9 |
| 20260904084534 | 15 | 207 | 0.0 | 0.0 | 0.00 | 0.00 | 0.00 | 92 | 1010.0 |
| 20260904083041 | 15 | 207 | 0.0 | 0.0 | 0.00 | 0.00 | 0.00 | 92 | 1010.0 |
| 20260904081531 | 15 | 207 | 0.0 | 0.0 | 0.00 | 0.00 | 0.00 | 92 | 1010.2 |
| 20260904080031 | 15 | 207 | 0.0 | 0.0 | 0.00 | 0.00 | 0.00 | 92 | 1010.1 |
| 20260904074530 | 15 | 207 | 0.0 | 0.0 | 0.00 | 0.00 | 0.00 | 92 | 1010.2 |
| 20260904073029 | 15 | 207 | 0.0 | 0.0 | 0.00 | 0.00 | 0.00 | 91 | 1010.0 |
| 20260904071528 | 15 | 207 | 0.0 | 0.0 | 0.00 | 0.00 | 0.00 | 92 | 1009.9 |
| 20260904070025 | 15 | 207 | 0.0 | 0.0 | 0.00 | 0.00 | 0.00 | 91 | 1009.9 |
| 20260904064524 | 15 | 207 | 0.0 | 0.0 | 0.00 | 0.00 | 0.00 | 92 | 1010.0 |
| 20260904063025 | 16 | 207 | 0.0 | 0.0 | 0.00 | 0.00 | 0.00 | 92 | 1010.1 |
| 20260904061521 | 16 | 207 | 0.0 | 0.0 | 0.00 | 0.00 | 0.00 | 91 | 1010.3 |
| 20260904060021 | 16 | 207 | 0.0 | 0.0 | 0.00 | 0.00 | 0.00 | 92 | 1010.6 |
| 20260904054517 | 16 | 207 | 0.0 | 0.0 | 0.00 | 0.00 | 0.00 | 91 | 1010.5 |
| 20260904053019 | 16 | 207 | 0.0 | 0.0 | 0.00 | 0.00 | 0.00 | 91 | 1010.8 |
| 20260904051514 | 16 | 207 | 0.0 | 0.0 | 0.00 | 0.00 | 0.00 | 90 | 1010.9 |
| 20260904050012 | 16 | 207 | 0.0 | 0.0 | 0.00 | 0.00 | 0.00 | 90 | 1011.0 |
| 20260904044513 | 16 | 207 | 0.0 | 0.0 | 0.00 | 0.00 | 0.00 | 90 | 1011.0 |
| 20260904043013 | 16 | 207 | 0.0 | 0.0 | 0.00 | 0.00 | 0.00 | 90 | 1011.1 |
| 20260904041509 | 17 | 207 | 0.0 | 0.0 | 0.00 | 0.00 | 0.00 | 89 | 1011.0 |
| 20260904040004 | 17 | 207 | 0.0 | 0.0 | 0.00 | 0.00 | 0.00 | 89 | 1011.2 |
| 20260904034503 | 17 | 207 | 0.0 | 0.0 | 0.00 | 0.00 | 0.00 | 89 | 1011.1 |
| 20260904033004 | 17 | 207 | 0.0 | 0.0 | 0.00 | 0.00 | 0.00 | 89 | 1011.3 |
| 20260904031503 | 17 | 207 | 0.0 | 0.0 | 0.00 | 0.00 | 0.00 | 89 | 1011.3 |
| 20260904030002 | 17 | 207 | 0.0 | 0.0 | 0.00 | 0.00 | 0.00 | 88 | 1011.4 |
| 20260904024504 | 18 | 207 | 0.0 | 0.0 | 0.00 | 0.00 | 0.00 | 88 | 1011.4 |
| 20260904023001 | 18 | 207 | 0.0 | 0.0 | 0.00 | 0.00 | 0.00 | 88 | 1011.4 |
| 20260904021501 | 18 | 207 | 0.0 | 0.0 | 0.00 | 0.00 | 0.00 | 87 | 1011.5 |
| 20260904020109 | 18 | 207 | 0.0 | 0.0 | 0.00 | 0.00 | 0.00 | 87 | 1011.4 |
| 20260904014613 | 19 | 207 | 0.0 | 0.0 | 0.00 | 0.00 | 0.00 | 86 | 1011.4 |
| 20260904013059 | 20 | 207 | 0.0 | 1.6 | 0.00 | 0.00 | 0.00 | 86 | 1011.3 |
| 20260904011559 | 20 | 205 | 0.0 | 0.0 | 0.00 | 0.00 | 0.00 | 86 | 1011.3 |
| 20260904010100 | 20 | 205 | 0.0 | 0.0 | 0.00 | 0.00 | 0.00 | 85 | 1011.4 |
| 20260904004558 | 21 | 205 | 0.0 | 0.0 | 0.00 | 0.00 | 0.00 | 84 | 1011.2 |
| 20260904003058 | 21 | 205 | 0.0 | 1.6 | 0.00 | 0.00 | 0.00 | 83 | 1011.0 |
| 20260904001556 | 22 | 205 | 0.0 | 0.0 | 0.00 | 0.00 | 0.00 | 82 | 1010.7 |
| 20260904000114 | 22 | 205 | 0.0 | 1.6 | 0.00 | 0.00 | 0.00 | 81 | 1010.3 |
| 20260903234556 | 23 | 205 | 0.0 | 0.0 | 0.00 | 0.00 | 0.00 | 78 | 1010.2 |
| 20260903233057 | 23 | 205 | 0.0 | 0.0 | 0.00 | 0.00 | 0.00 | 77 | 1009.9 |
| 20260903231556 | 23 | 205 | 0.0 | 3.2 | 0.00 | 0.00 | 0.00 | 76 | 1010.0 |
| 20260903230055 | 24 | 207 | 1.6 | 4.8 | 0.00 | 0.00 | 0.00 | 75 | 1010.1 |
| 20260903224611 | 25 | 210 | 0.0 | 1.6 | 0.00 | 0.00 | 0.00 | 75 | 1010.2 |
| 20260903223051 | 25 | 210 | 0.0 | 9.7 | 0.00 | 0.00 | 0.00 | 74 | 1010.3 |
| 20260903221552 | 25 | 196 | 0.0 | 6.4 | 0.00 | 0.00 | 0.00 | 74 | 1010.2 |
| 20260903220050 | 25 | 223 | 3.2 | 9.7 | 0.00 | 0.00 | 0.00 | 74 | 1010.1 |
| 20260903214607 | 25 | 211 | 4.8 | 12.9 | 0.00 | 0.00 | 0.00 | 71 | 1010.2 |
| 20260903213059 | 26 | 217 | 3.2 | 9.7 | 0.00 | 0.00 | 0.00 | 71 | 1010.5 |
| 20260903211549 | 26 | 217 | 3.2 | 8.0 | 0.00 | 0.00 | 0.00 | 70 | 1010.6 |
| 20260903210121 | 26 | 219 | 0.0 | 8.0 | 0.00 | 0.00 | 0.00 | 71 | 1010.2 |
| 20260903204550 | 26 | 210 | 0.0 | 3.2 | 0.00 | 0.00 | 0.00 | 74 | 1010.1 |
| 20260903203105 | 26 | 208 | 0.0 | 9.7 | 0.00 | 0.00 | 0.00 | 71 | 1010.2 |
| 20260903201548 | 26 | 217 | 6.4 | 14.5 | 0.00 | 0.00 | 0.00 | 69 | 1010.1 |
| 20260903200052 | 26 | 330 | 0.0 | 4.8 | 0.00 | 0.00 | 0.00 | 74 | 1010.2 |
| 20260903194541 | 26 | 212 | 3.2 | 12.9 | 0.00 | 0.00 | 0.00 | 72 | 1010.4 |
| 20260903193039 | 25 | 198 | 0.0 | 9.7 | 0.00 | 0.00 | 0.00 | 75 | 1010.7 |
| 20260903191540 | 25 | 205 | 1.6 | 8.0 | 0.00 | 0.00 | 0.00 | 75 | 1010.6 |
| 20260903190035 | 25 | 221 | 0.0 | 4.8 | 0.00 | 0.00 | 0.00 | 78 | 1010.5 |
| 20260903184531 | 24 | 202 | 1.6 | 6.4 | 0.00 | 0.00 | 0.00 | 81 | 1010.7 |
| 20260903183029 | 23 | 223 | 0.0 | 4.8 | 0.00 | 0.00 | 0.00 | 81 | 1010.9 |
| 20260903181528 | 23 | 217 | 0.0 | 8.0 | 0.00 | 0.00 | 0.00 | 81 | 1011.1 |
| 20260903180026 | 23 | 215 | 0.0 | 4.8 | 0.00 | 0.00 | 0.00 | 82 | 1011.3 |
| 20260903174522 | 23 | 153 | 0.0 | 4.8 | 0.00 | 0.00 | 0.00 | 81 | 1011.5 |
| 20260903173021 | 23 | 153 | 0.0 | 4.8 | 0.00 | 0.00 | 0.00 | 82 | 1011.6 |
| 20260903171519 | 23 | 197 | 1.6 | 4.8 | 0.00 | 0.00 | 0.00 | 82 | 1011.6 |
| 20260903170017 | 22 | 147 | 0.0 | 6.4 | 0.00 | 0.00 | 0.00 | 82 | 1011.8 |
| 20260903164515 | 22 | 211 | 0.0 | 8.0 | 0.00 | 0.00 | 0.00 | 85 | 1011.8 |
| 20260903163012 | 22 | 209 | 0.0 | 6.4 | 0.00 | 0.00 | 0.00 | 84 | 1012.1 |
| 20260903161512 | 22 | 211 | 0.0 | 9.7 | 0.00 | 0.00 | 0.00 | 84 | 1012.3 |
| 20260903160012 | 22 | 219 | 0.0 | 9.7 | 0.00 | 0.00 | 0.00 | 85 | 1012.3 |
| 20260903154507 | 22 | 202 | 0.0 | 9.7 | 0.00 | 0.00 | 0.00 | 85 | 1012.4 |
| 20260903153008 | 21 | 196 | 1.6 | 4.8 | 0.00 | 0.00 | 0.00 | 86 | 1012.5 |
| 20260903151504 | 21 | 209 | 1.6 | 6.4 | 0.00 | 0.00 | 0.00 | 87 | 1012.8 |
| 20260903150105 | 21 | 201 | 1.6 | 8.0 | 0.00 | 0.00 | 0.00 | 88 | 1012.6 |
| 20260903144604 | 20 | 217 | 1.6 | 8.0 | 0.00 | 0.00 | 0.00 | 88 | 1012.8 |
| 20260903143107 | 20 | 211 | 0.0 | 1.6 | 0.00 | 0.00 | 0.00 | 89 | 1012.8 |
| 20260903141602 | 19 | 260 | 0.0 | 1.6 | 0.00 | 0.00 | 0.00 | 89 | 1013.0 |
| 20260903140049 | 19 | 260 | 0.0 | 1.6 | 0.00 | 0.00 | 0.00 | 90 | 1013.1 |
| 20260903134552 | 18 | 260 | 0.0 | 0.0 | 0.00 | 0.00 | 0.00 | 90 | 1013.1 |
| 20260903133046 | 18 | 260 | 0.0 | 0.0 | 0.00 | 0.00 | 0.00 | 90 | 1013.0 |
| 20260903131547 | 18 | 260 | 0.0 | 1.6 | 0.00 | 0.00 | 0.00 | 90 | 1013.1 |
| 20260903130044 | 18 | 260 | 0.0 | 0.0 | 0.00 | 0.00 | 0.00 | 89 | 1013.1 |